contacte
inicio
- ACTUALIZADO a las 10:33
Cámara en vivo
A 5 metros de altura
Dirección Noreste
Datos del día de Hoy
Parameter                   Max   Max Time        Min   Min Time    Average
Wind Direction              259       4:33        246       0:00        248
Wind Speed                    5       4:27          0       0:00          0
Wind Gust                     6       4:27          0       0:00          2
In Humidity                  70       0:00         64       9:22         67
Humidity                     95       8:26         90       0:02         93
In Temp                    22.7       0:00       21.4       9:09       22.1
Out Temp                   15.1       0:00       11.0       8:03       12.7
Raw Barometer           1021.46      10:19    1016.46       0:00    1018.63
Total Rain               315.80       3:27     315.60       0:00     315.73




24/4/20
Time         Wind Dir   Wind Spd  Wind Gust     Hum In   Humidity    Temp In       Temp  Raw Barom   Tot Rain
                    °      km/hr      km/hr          %          %         °C         °C         mb         mm
0:00              253          2          5         59         76       23.6       17.2    1011.76     202.20
0:20              261          0          3         59         76       23.6       16.8    1011.76     202.20
0:40              276          0          2         59         77       23.5       16.4    1011.79     202.20
1:00              277          0          2         59         78       23.5       16.2    1011.89     202.20
1:20              277          0          2         59         78       23.5       16.1    1011.72     202.20
1:40              279          0          3         58         78       23.4       15.9    1011.69     202.20
2:00              285          0          3         58         80       23.4       15.4    1011.72     202.20
2:20              285          2          2         58         80       23.4       15.2    1011.69     202.20
2:40              302          0          3         58         79       23.2       14.9    1011.42     202.20
3:00              302          0          3         58         79       23.3       14.9    1011.39     202.20
3:20              302          0          3         58         80       23.2       14.7    1011.35     202.20
3:40              313          0          3         58         80       23.1       14.5    1011.18     202.20
4:00              334          3          3         58         79       23.1       14.4    1010.95     202.20
4:20              355          6          6         58         78       22.9       14.7    1010.71     202.20
4:40              355          2          6         57         78       22.8       14.6    1010.54     202.20
5:00              355          3          8         57         78       22.8       14.6    1010.37     202.20
5:20              355          2          6         57         79       22.8       14.6    1010.41     202.20
5:40              355          0          3         57         81       22.7       14.2    1010.17     202.20
6:00              355          0          6         57         82       22.6       13.9    1010.03     202.20
6:20              355          0          3         57         82       22.6       13.8    1009.93     202.20
6:40              360          2          3         57         82       22.4       13.9    1009.87     202.20
7:00               17          2          5         57         81       22.4       13.9    1009.87     202.20
7:20                5          3          6         57         81       22.4       13.8    1009.76     202.20
7:40               17          3          5         57         81       22.3       13.7    1009.73     202.20
8:00                9          3          6         57         82       22.1       13.5    1009.80     202.20
8:20               28          2          8         56         82       21.9       13.6    1009.73     202.20
8:40               29          3          5         55         82       21.7       13.7    1009.70     202.20
9:00               32          2          5         56         82       21.5       14.3    1009.76     202.20
9:20               63          2          5         57         79       21.5       15.3    1009.90     202.20
9:40               65          3          6         56         74       22.1       16.4    1009.80     202.20
10:00              68          3          8         55         71       22.4       17.1    1009.80     202.20
10:20              90          2          6         55         71       22.7       17.8    1009.97     202.20
10:40              75          5         13         54         68       22.9       18.4    1009.80     202.20
11:00              49          2         13         54         65       23.3       18.8    1009.97     202.20
11:20              64          2          8         53         64       23.3       19.0    1009.90     202.20
11:40              84          2          6         53         63       23.3       19.3    1009.80     202.20
12:00              84          2          6         53         64       23.2       19.4    1009.63     202.20
12:20              96          3          6         54         64       23.1       19.8    1009.49     202.20
12:40              72          0          3         55         63       23.1       20.1    1009.56     202.20
13:00              77          0          5         55         61       23.2       20.7    1009.09     202.20
13:20             311          6         10         53         56       23.5       21.8    1008.82     202.20
13:40              46          0          6         52         54       23.7       22.3    1008.51     202.20
14:00              12          3          6         51         51       23.9       22.6    1008.34     202.20
14:20              38          5          5         51         51       23.9       23.1    1008.18     202.20
14:40              71          2          6         51         49       24.0       23.6    1007.97     202.20
15:00              70          0          6         51         48       24.2       23.8    1007.77     202.20
15:20              67          0          3         52         48       24.3       24.3    1007.80     202.20
15:40             334          0          3         51         47       24.4       24.8    1007.80     202.20
16:00             355          0          6         51         47       24.7       25.3    1007.63     202.20
16:20             196          0          6         52         48       24.9       24.8    1007.53     202.20
16:40             164          2          6         53         47       25.0       24.7    1007.30     202.20
17:00             195          0          8         52         47       25.1       24.6    1006.96     202.20
17:20             165          2          6         51         49       25.2       24.6    1006.52     202.20
17:40             164          0          3         51         53       25.1       24.2    1006.28     202.20
18:00             206          0          3         50         50       25.0       24.2    1006.08     202.20
18:20             272          0          3         50         52       25.0       23.9    1006.05     202.20
18:40             295          2          3         50         52       25.0       23.9    1005.81     202.20
19:00             296          0          3         51         50       24.9       23.9    1005.98     202.20
19:20             294          0          2         52         58       24.9       23.6    1005.78     202.20
19:40             217          2          5         53         55       25.0       23.5    1005.94     202.20
20:00             214          2          5         53         59       25.1       22.8    1005.84     202.20
20:20             205          2          3         54         62       25.1       22.4    1005.98     202.20
20:40             215          2          5         55         67       25.1       21.6    1006.01     202.20
0:00              246          0          5         70         91       22.7       15.1    1016.46     315.60
0:20              246          0          2         70         91       22.7       14.8    1016.83     315.60
0:40              246          0          2         69         91       22.7       14.6    1017.00     315.60
1:00              246          0          2         69         91       22.6       14.2    1017.07     315.60
1:20              246          0          2         69         92       22.6       14.1    1017.30     315.60
1:40              246          0          0         69         92       22.6       13.8    1017.44     315.60
2:00              246          0          0         69         92       22.4       13.7    1017.57     315.60
2:20              246          0          0         69         92       22.4       13.4    1017.57     315.60
2:40              246          0          0         69         93       22.4       13.3    1017.71     315.60
3:00              246          0          0         68         93       22.4       13.2    1017.78     315.60
3:20              246          0          0         68         93       22.3       12.9    1017.94     315.60
3:40              246          0          3         68         93       22.3       12.8    1017.94     315.80
4:00              246          0          3         68         93       22.2       12.8    1018.05     315.80
4:20              246          0          2         67         93       22.2       12.7    1018.25     315.80
4:40              258          0          5         67         93       22.1       12.4    1018.22     315.80
5:00              258          0          5         67         93       22.1       12.3    1018.38     315.80
5:20              258          0          0         67         94       22.0       12.1    1018.35     315.80
5:40              258          0          0         67         94       21.9       12.2    1018.45     315.80
6:00              258          0          0         66         94       21.9       12.3    1018.65     315.80
6:20              258          0          0         66         94       21.9       12.1    1018.82     315.80
6:40              258          0          0         66         94       21.8       12.0    1019.06     315.80
7:00              258          0          0         66         94       21.8       11.8    1019.40     315.80
7:20              258          0          0         66         94       21.7       11.6    1019.43     315.80
7:40              258          0          0         65         94       21.7       11.5    1019.74     315.80
8:00              258          0          3         65         94       21.6       11.1    1019.87     315.80
8:20              258          0          3         65         94       21.6       11.1    1020.07     315.80
8:40              258          0          0         65         95       21.5       11.1    1020.18     315.80
9:00              258          0          0         65         95       21.5       11.2    1020.41     315.80
9:20              258          0          0         65         95       21.4       11.6    1020.65     315.80
9:40              258          0          2         65         95       21.4       12.4    1020.95     315.80
10:00             258          2          5         65         95       21.4       12.9    1021.29     315.80
10:20             258          0          3         65         95       21.7       13.7    1021.46     315.80
Miembro de: